CFG1W8 EDDH-EDDL

Flight info

Callsign CFG1W8
Flight time 0h 47m
Altitude 31000
Route IDEKO8C IDEKO N850 ROBEG/N0455F300 DCT DENOL T851 HALME HALME1A
Aircraft A320/M-SDE3FGHIRWY/LB1

Departure

Time 2026-05-06 12:14
Airport Hamburg Helmut Schmidt Airport (EDDH)

Arrival

Time 2026-05-06 13:02
Airport Düsseldorf Airport (EDDL)
Time Latitude Longitude Altitude Speed Heading
2026-05-06 11:42 53.63113 10.00376 48 ft 0 kts 87°
2026-05-06 12:01 53.63113 10.00371 48 ft 3 kts 87°
2026-05-06 12:01 53.63111 10.00326 48 ft 4 kts 79°
2026-05-06 12:01 53.63107 10.00299 48 ft 0 kts 69°
2026-05-06 12:02 53.63104 10.00282 48 ft 3 kts 89°
2026-05-06 12:02 53.63107 10.00253 48 ft 3 kts 124°
2026-05-06 12:02 53.63119 10.00232 48 ft 3 kts 147°
2026-05-06 12:03 53.63131 10.00221 48 ft 0 kts 175°
2026-05-06 12:05 53.63130 10.00221 48 ft 1 kts 175°
2026-05-06 12:05 53.63070 10.00219 47 ft 13 kts 197°
2026-05-06 12:05 53.62994 10.00141 43 ft 13 kts 213°
2026-05-06 12:06 53.62920 10.00063 45 ft 12 kts 210°
2026-05-06 12:06 53.62845 10.00003 43 ft 11 kts 211°
2026-05-06 12:06 53.62782 9.99941 46 ft 10 kts 210°
2026-05-06 12:06 53.62729 9.99891 45 ft 8 kts 208°
2026-05-06 12:07 53.62674 9.99840 45 ft 12 kts 215°
2026-05-06 12:07 53.62626 9.99644 44 ft 20 kts 258°
2026-05-06 12:07 53.62601 9.99426 44 ft 18 kts 258°
2026-05-06 12:07 53.62579 9.99232 43 ft 16 kts 259°
2026-05-06 12:08 53.62559 9.99058 46 ft 14 kts 259°
2026-05-06 12:08 53.62542 9.98901 46 ft 13 kts 258°
2026-05-06 12:08 53.62522 9.98725 46 ft 20 kts 259°
2026-05-06 12:08 53.62493 9.98475 44 ft 23 kts 259°
2026-05-06 12:09 53.62460 9.98213 43 ft 22 kts 253°
2026-05-06 12:09 53.62386 9.98001 44 ft 21 kts 232°
2026-05-06 12:09 53.62298 9.97823 44 ft 19 kts 229°
2026-05-06 12:09 53.62216 9.97657 43 ft 18 kts 231°
2026-05-06 12:10 53.62139 9.97501 43 ft 17 kts 230°
2026-05-06 12:10 53.62060 9.97343 43 ft 20 kts 230°
2026-05-06 12:10 53.61972 9.97166 41 ft 19 kts 230°
2026-05-06 12:10 53.61889 9.96996 40 ft 18 kts 230°
2026-05-06 12:11 53.61810 9.96838 41 ft 17 kts 230°
2026-05-06 12:11 53.61738 9.96691 41 ft 16 kts 230°
2026-05-06 12:11 53.61683 9.96579 38 ft 11 kts 235°
2026-05-06 12:11 53.61678 9.96463 39 ft 10 kts 296°
2026-05-06 12:12 53.61728 9.96415 41 ft 8 kts 352°
2026-05-06 12:12 53.61785 9.96426 42 ft 10 kts
2026-05-06 12:12 53.61854 9.96451 42 ft 11 kts 28°
2026-05-06 12:12 53.61914 9.96555 41 ft 14 kts 51°
2026-05-06 12:13 53.61940 9.96608 41 ft 0 kts 49°
2026-05-06 12:13 53.61941 9.96609 41 ft 0 kts 49°
2026-05-06 12:14 53.61967 9.96663 41 ft 27 kts 50°
2026-05-06 12:14 53.62257 9.97248 45 ft 99 kts 50°
2026-05-06 12:14 53.62817 9.98389 51 ft 151 kts 51°
2026-05-06 12:14 53.63474 9.99742 710 ft 147 kts 50°
2026-05-06 12:15 53.64133 10.01087 1465 ft 150 kts 50°
2026-05-06 12:15 53.64807 10.02461 2107 ft 159 kts 51°
2026-05-06 12:15 53.65553 10.03982 2450 ft 182 kts 51°
2026-05-06 12:15 53.66396 10.05702 3032 ft 194 kts 52°
2026-05-06 12:16 53.67269 10.07478 3853 ft 199 kts 52°
2026-05-06 12:16 53.68178 10.09297 4618 ft 207 kts 47°
2026-05-06 12:16 53.69439 10.10533 5362 ft 219 kts 14°
2026-05-06 12:16 53.70989 10.10333 6091 ft 239 kts 339°
2026-05-06 12:17 53.72329 10.08456 6550 ft 269 kts 307°
2026-05-06 12:17 53.73328 10.05662 7255 ft 283 kts 299°
2026-05-06 12:17 53.74203 10.02649 8221 ft 287 kts 295°
2026-05-06 12:17 53.74779 9.99424 9219 ft 289 kts 276°
2026-05-06 12:18 53.74730 9.96024 10128 ft 294 kts 261°
2026-05-06 12:18 53.74104 9.92602 10435 ft 318 kts 246°
2026-05-06 12:18 53.73208 9.89103 10991 ft 330 kts 246°
2026-05-06 12:18 53.72290 9.85519 11763 ft 335 kts 246°
2026-05-06 12:19 53.71375 9.81932 12559 ft 339 kts 245°
2026-05-06 12:19 53.70439 9.78257 13346 ft 343 kts 245°
2026-05-06 12:19 53.69492 9.74537 14085 ft 346 kts 245°
2026-05-06 12:19 53.68537 9.70792 14814 ft 348 kts 245°
2026-05-06 12:20 53.67577 9.67027 15561 ft 351 kts 244°
2026-05-06 12:20 53.66398 9.63426 16284 ft 351 kts 232°
2026-05-06 12:20 53.64727 9.60440 16979 ft 352 kts 218°
2026-05-06 12:20 53.62652 9.58246 17674 ft 353 kts 204°
2026-05-06 12:21 53.60303 9.56988 18322 ft 357 kts 190°
2026-05-06 12:21 53.57825 9.56462 18907 ft 360 kts 187°
2026-05-06 12:21 53.55331 9.55973 19490 ft 363 kts 187°
2026-05-06 12:21 53.52808 9.55477 20081 ft 366 kts 187°
2026-05-06 12:22 53.50271 9.54979 20683 ft 369 kts 187°
2026-05-06 12:22 53.47707 9.54474 21279 ft 373 kts 187°
2026-05-06 12:22 53.45120 9.53962 21859 ft 376 kts 187°
2026-05-06 12:22 53.42504 9.53442 22443 ft 380 kts 187°
2026-05-06 12:23 53.39907 9.52929 23004 ft 383 kts 187°
2026-05-06 12:23 53.37249 9.52410 23541 ft 386 kts 187°
2026-05-06 12:23 53.34567 9.51888 24007 ft 389 kts 187°
2026-05-06 12:23 53.31866 9.51364 24470 ft 392 kts 187°
2026-05-06 12:24 53.29151 9.50835 24916 ft 394 kts 187°
2026-05-06 12:24 53.26416 9.50301 25362 ft 397 kts 187°
2026-05-06 12:24 53.23665 9.49762 25796 ft 399 kts 186°
2026-05-06 12:24 53.20896 9.49221 26221 ft 402 kts 186°
2026-05-06 12:25 53.18111 9.48677 26630 ft 404 kts 186°
2026-05-06 12:25 53.15308 9.48131 27040 ft 407 kts 186°
2026-05-06 12:25 53.12489 9.47582 27445 ft 409 kts 186°
2026-05-06 12:25 53.09652 9.47029 27838 ft 412 kts 186°
2026-05-06 12:26 53.06792 9.46470 28228 ft 414 kts 186°
2026-05-06 12:26 53.03924 9.45915 28611 ft 417 kts 186°
2026-05-06 12:26 53.01032 9.45363 28966 ft 419 kts 185°
2026-05-06 12:26 52.98121 9.44805 29318 ft 422 kts 186°
2026-05-06 12:27 52.95196 9.44212 29661 ft 425 kts 186°
2026-05-06 12:27 52.92258 9.43584 29975 ft 427 kts 186°
2026-05-06 12:27 52.89333 9.42943 30252 ft 430 kts 186°
2026-05-06 12:27 52.86364 9.42291 30542 ft 431 kts 186°
2026-05-06 12:28 52.83379 9.41638 30781 ft 433 kts 186°
2026-05-06 12:28 52.80414 9.40993 30838 ft 422 kts 186°
2026-05-06 12:28 52.77553 9.40378 30843 ft 408 kts 186°
2026-05-06 12:28 52.74755 9.39783 30841 ft 404 kts 186°
2026-05-06 12:29 52.69199 9.38612 30839 ft 402 kts 186°
2026-05-06 12:29 52.63648 9.37449 30836 ft 402 kts 186°
2026-05-06 12:30 52.58104 9.36156 30839 ft 403 kts 187°
2026-05-06 12:30 52.52563 9.34646 30836 ft 403 kts 188°
2026-05-06 12:31 52.47063 9.33144 30836 ft 403 kts 188°
2026-05-06 12:31 52.41523 9.31685 30829 ft 403 kts 188°
2026-05-06 12:32 52.35991 9.30259 30827 ft 403 kts 188°
2026-05-06 12:32 52.30450 9.28827 30801 ft 403 kts 188°
2026-05-06 12:33 52.25104 9.26142 30796 ft 405 kts 207°
2026-05-06 12:33 52.22752 9.23609 30796 ft 406 kts 218°
2026-05-06 12:33 52.20730 9.20397 30797 ft 407 kts 229°
2026-05-06 12:34 52.17487 9.12831 30798 ft 407 kts 235°
2026-05-06 12:34 52.14335 9.05258 30799 ft 407 kts 235°
2026-05-06 12:35 52.11153 8.97659 30595 ft 403 kts 235°
2026-05-06 12:35 52.09578 8.93908 30103 ft 400 kts 235°
2026-05-06 12:35 52.08008 8.90175 29521 ft 399 kts 235°
2026-05-06 12:36 52.06449 8.86473 28983 ft 395 kts 235°
2026-05-06 12:36 52.04903 8.82805 28477 ft 391 kts 235°
2026-05-06 12:36 52.03372 8.79177 27973 ft 388 kts 235°
2026-05-06 12:36 52.01854 8.75586 27493 ft 384 kts 235°
2026-05-06 12:37 52.00351 8.72031 27029 ft 380 kts 236°
2026-05-06 12:37 51.99020 8.68349 26581 ft 376 kts 244°
2026-05-06 12:37 51.98060 8.64416 26129 ft 373 kts 253°
2026-05-06 12:37 51.97461 8.60336 25687 ft 371 kts 258°
2026-05-06 12:38 51.96953 8.56309 25246 ft 368 kts 258°
2026-05-06 12:38 51.96435 8.52258 24884 ft 365 kts 258°
2026-05-06 12:38 51.95916 8.48220 24801 ft 365 kts 258°
2026-05-06 12:38 51.95393 8.44185 24821 ft 366 kts 258°
2026-05-06 12:39 51.94866 8.40147 24822 ft 366 kts 258°
2026-05-06 12:39 51.94339 8.36106 24822 ft 366 kts 258°
2026-05-06 12:39 51.93813 8.32062 24822 ft 367 kts 258°
2026-05-06 12:39 51.93286 8.28027 24605 ft 364 kts 258°
2026-05-06 12:40 51.92764 8.24029 24217 ft 362 kts 258°
2026-05-06 12:40 51.92242 8.20044 23829 ft 359 kts 258°
2026-05-06 12:40 51.91725 8.16098 23460 ft 357 kts 258°
2026-05-06 12:40 51.91209 8.12176 22970 ft 355 kts 258°
2026-05-06 12:41 51.90699 8.08285 22511 ft 352 kts 258°
2026-05-06 12:41 51.90196 8.04475 22070 ft 349 kts 258°
2026-05-06 12:41 51.89688 8.00648 21624 ft 347 kts 258°
2026-05-06 12:41 51.89184 7.96848 21178 ft 344 kts 258°
2026-05-06 12:42 51.88682 7.93069 20725 ft 341 kts 258°
2026-05-06 12:42 51.88184 7.89324 20299 ft 339 kts 258°
2026-05-06 12:42 51.87687 7.85600 19876 ft 337 kts 257°
2026-05-06 12:42 51.87187 7.81911 19457 ft 335 kts 257°
2026-05-06 12:43 51.86686 7.78235 19051 ft 333 kts 257°
2026-05-06 12:43 51.86191 7.74591 18661 ft 331 kts 257°
2026-05-06 12:43 51.85628 7.71002 18265 ft 329 kts 251°
2026-05-06 12:43 51.84728 7.67615 17841 ft 327 kts 244°
2026-05-06 12:44 51.83735 7.64375 17409 ft 325 kts 244°
2026-05-06 12:44 51.82729 7.61118 16986 ft 323 kts 244°
2026-05-06 12:44 51.81727 7.57878 16572 ft 321 kts 243°
2026-05-06 12:44 51.80734 7.54657 16177 ft 319 kts 243°
2026-05-06 12:45 51.79750 7.51456 15822 ft 317 kts 243°
2026-05-06 12:45 51.78699 7.48329 15456 ft 316 kts 240°
2026-05-06 12:45 51.76914 7.43213 14822 ft 313 kts 240°
2026-05-06 12:46 51.75852 7.40164 14449 ft 311 kts 240°
2026-05-06 12:46 51.74796 7.37125 14075 ft 309 kts 240°
2026-05-06 12:46 51.73748 7.34104 13709 ft 308 kts 240°
2026-05-06 12:46 51.72704 7.31094 13301 ft 307 kts 240°
2026-05-06 12:47 51.71664 7.28100 12893 ft 305 kts 240°
2026-05-06 12:47 51.70628 7.25129 12474 ft 304 kts 240°
2026-05-06 12:47 51.69591 7.22165 12051 ft 303 kts 240°
2026-05-06 12:47 51.68553 7.19210 11626 ft 303 kts 240°
2026-05-06 12:48 51.67520 7.16259 11315 ft 302 kts 240°
2026-05-06 12:48 51.66479 7.13312 11059 ft 303 kts 240°
2026-05-06 12:48 51.65432 7.10365 10805 ft 303 kts 240°
2026-05-06 12:48 51.64386 7.07413 10567 ft 304 kts 240°
2026-05-06 12:49 51.63337 7.04461 10328 ft 304 kts 240°
2026-05-06 12:49 51.62295 7.01538 10077 ft 298 kts 240°
2026-05-06 12:49 51.61270 6.98671 9830 ft 293 kts 240°
2026-05-06 12:49 51.60254 6.95832 9579 ft 292 kts 240°
2026-05-06 12:50 51.59245 6.93018 9312 ft 290 kts 240°
2026-05-06 12:50 51.58249 6.90251 9041 ft 289 kts 240°
2026-05-06 12:50 51.57242 6.87464 8776 ft 287 kts 240°
2026-05-06 12:50 51.56239 6.84693 8522 ft 286 kts 240°
2026-05-06 12:51 51.55245 6.81963 8264 ft 279 kts 240°
2026-05-06 12:51 51.54273 6.79306 8011 ft 273 kts 240°
2026-05-06 12:51 51.53315 6.76698 7747 ft 268 kts 240°
2026-05-06 12:51 51.52381 6.74154 7493 ft 261 kts 240°
2026-05-06 12:52 51.51467 6.71674 7237 ft 255 kts 240°
2026-05-06 12:52 51.50569 6.69251 6995 ft 251 kts 240°
2026-05-06 12:52 51.49648 6.66887 6750 ft 249 kts 238°
2026-05-06 12:52 51.48697 6.64578 6499 ft 247 kts 237°
2026-05-06 12:53 51.47744 6.62278 6257 ft 246 kts 238°
2026-05-06 12:53 51.46791 6.60000 5998 ft 246 kts 238°
2026-05-06 12:53 51.45812 6.57747 5732 ft 246 kts 234°
2026-05-06 12:53 51.44786 6.55604 5465 ft 245 kts 233°
2026-05-06 12:54 51.43739 6.53449 5225 ft 244 kts 233°
2026-05-06 12:54 51.42691 6.51301 4983 ft 244 kts 233°
2026-05-06 12:54 51.41639 6.49149 4729 ft 245 kts 233°
2026-05-06 12:54 51.40583 6.46988 4462 ft 247 kts 233°
2026-05-06 12:55 51.39520 6.44809 4204 ft 250 kts 233°
2026-05-06 12:55 51.38435 6.42624 4051 ft 250 kts 228°
2026-05-06 12:55 51.37043 6.41017 4021 ft 246 kts 201°
2026-05-06 12:55 51.35386 6.40521 4020 ft 243 kts 176°
2026-05-06 12:56 51.33778 6.41185 4030 ft 240 kts 153°
2026-05-06 12:56 51.32268 6.42324 4032 ft 240 kts 153°
2026-05-06 12:56 51.30753 6.43474 4035 ft 241 kts 153°
2026-05-06 12:56 51.29236 6.44625 4035 ft 241 kts 153°
2026-05-06 12:57 51.27737 6.45757 4028 ft 241 kts 153°
2026-05-06 12:57 51.26225 6.46895 3764 ft 239 kts 154°
2026-05-06 12:57 51.24720 6.48029 3592 ft 238 kts 153°
2026-05-06 12:57 51.23216 6.49165 3335 ft 240 kts 154°
2026-05-06 12:58 51.21710 6.50300 3147 ft 239 kts 153°
2026-05-06 12:58 51.20212 6.51444 3038 ft 238 kts 149°
2026-05-06 12:58 51.19082 6.53245 3030 ft 230 kts 110°
2026-05-06 12:58 51.18908 6.55663 3033 ft 224 kts 72°
2026-05-06 12:59 51.19622 6.57827 2914 ft 222 kts 52°
2026-05-06 12:59 51.20567 6.59787 2651 ft 224 kts 50°
2026-05-06 12:59 51.21508 6.61720 2361 ft 215 kts 50°
2026-05-06 12:59 51.22390 6.63553 2074 ft 202 kts 50°
2026-05-06 13:00 51.23213 6.65272 1813 ft 188 kts 50°
2026-05-06 13:00 51.23976 6.66865 1556 ft 172 kts 50°
2026-05-06 13:00 51.24661 6.68299 1350 ft 152 kts 50°
2026-05-06 13:00 51.25273 6.69577 1132 ft 139 kts 50°
2026-05-06 13:01 51.25844 6.70770 930 ft 133 kts 49°
2026-05-06 13:01 51.26407 6.71947 743 ft 133 kts 49°
2026-05-06 13:01 51.26963 6.73110 552 ft 131 kts 48°
2026-05-06 13:01 51.27507 6.74250 395 ft 131 kts 49°
2026-05-06 13:02 51.28055 6.75416 201 ft 130 kts 48°
2026-05-06 13:02 51.28589 6.76501 135 ft 107 kts 52°
2026-05-06 13:02 51.28923 6.77213 139 ft 38 kts 53°
2026-05-06 13:02 51.29008 6.77407 141 ft 14 kts 60°
2026-05-06 13:03 51.29017 6.77533 143 ft 9 kts 112°
2026-05-06 13:03 51.28991 6.77585 143 ft 3 kts 136°
2026-05-06 13:03 51.28985 6.77594 143 ft 0 kts 137°
2026-05-06 13:03 51.28980 6.77600 143 ft 6 kts 141°
2026-05-06 13:04 51.28937 6.77644 143 ft 6 kts 163°
2026-05-06 13:04 51.28899 6.77627 141 ft 6 kts 214°
2026-05-06 13:04 51.28868 6.77570 138 ft 11 kts 232°
2026-05-06 13:04 51.28826 6.77479 138 ft 8 kts 231°
2026-05-06 13:05 51.28774 6.77373 140 ft 15 kts 233°
2026-05-06 13:05 51.28708 6.77236 140 ft 17 kts 233°
2026-05-06 13:05 51.28627 6.77064 142 ft 20 kts 233°
2026-05-06 13:05 51.28545 6.76893 140 ft 21 kts 233°
2026-05-06 13:06 51.28453 6.76700 134 ft 23 kts 233°
2026-05-06 13:06 51.28355 6.76493 129 ft 24 kts 232°
2026-05-06 13:06 51.28255 6.76283 127 ft 23 kts 233°
2026-05-06 13:06 51.28162 6.76087 132 ft 15 kts 235°
2026-05-06 13:07 51.28110 6.76026 133 ft 7 kts 182°
2026-05-06 13:07 51.28076 6.76046 133 ft 3 kts 171°
2026-05-06 13:07 51.28033 6.76048 133 ft 8 kts 176°
2026-05-06 13:07 51.28010 6.76075 134 ft 1 kts 121°
2026-05-06 13:08 51.27997 6.76135 138 ft 0 kts 106°
2026-05-06 13:08 51.27996 6.76139 138 ft 0 kts 106°